Dewpoint
-10 -9 -9 -9 -9 -8 -7 -7 -8 -9 -11 -15 -16 -18 -23 -24 -24 -22 -21 -21 -19 -22 -24 -22 -17 -20 -19 -21 -23 -25 -24 -24 -27 -26 -21 -21 -23 -16 -15 -17 -15 -15 -14 -14 -13 -15 -14
-10 -7 -6 -6 -6 -7 -7 -6 -6 -7 -8 -11 -15 -16 -17 -22 -24 -23 -22 -21 -19 -19 -22 -20 -20 -16 -18 -17 -23 -24 -23 -22 -27 -27 -23 -21 -22 -21 -17 -16 -15 -14 -14 -14 -14 -15 -16
-11 -7 -5 -4 -4 -5 -6 -6 -6 -6 -6 -7 -10 -14 -17 -18 -19 -21 -21 -19 -19 -24 -23 -19 -20 -17 -15 -16 -18 -23 -23 -21 -25 -26 -25 -22 -21 -18 -16 -17 -16 -17 -16 -16 -16 -16 -16
-12 -8 -6 -5 -3 -3 -3 -4 -6 -5 -5 -5 -7 -10 -13 -17 -17 -19 -21 -19 -17 -15 -14 -17 -19 -17 -16 -15 -15 -19 -23 -20 -20 -23 -25 -23 -21 -20 -16 -19 -18 -17 -16 -11 -16 -16 -15
-12 -9 -7 -5 -4 -3 -2 -2 -3 -3 -4 -4 -5 -6 -10 -12 -14 -17 -16 -12 -13 -18 -15 -12 -14 -16 -17 -15 -14 -16 -22 -20 -20 -21 -24 -24 -22 -17 -15 -14 -9 -15 -9 -14 -15 -15 -15
-9 -8 -7 -6 -5 -3 -2 -1 -1 -2 -3 -4 -4 -5 -7 -9 -11 -14 -13 -15 -13 -14 -15 -13 -11 -8 -14 -16 -14 -15 -21 -18 -19 -20 -22 -19 -15 -15 -16 -10 -4 -13 -11 -14 -14 -16 -15
-6 -5 -6 -6 -5 -4 -2 -1 -0 -1 -2 -3 -3 -4 -5 -7 -9 -11 -13 -15 -14 -11 -10 -14 -14 -14 -14 -15 -14 -15 -17 -18 -17 -17 -15 -15 -11 -13 -16 -17 -17 -14 -12 -9 -13 -16 -15
-8 -6 -4 -4 -4 -4 -2 -1 -0 -0 -1 -1 -3 -3 -4 -6 -7 -10 -13 -14 -12 -11 -11 -13 -13 -13 -14 -15 -11 -14 -15 -14 -13 -14 -15 -12 -11 -15 -16 -15 -14 -13 -9 -5 -12 -15 -15
-13 -12 -9 -6 -3 -3 -2 -1 -1 -0 0 -0 -2 -2 -3 -4 -6 -9 -13 -12 -12 -12 -7 -10 -13 -13 -13 -14 -13 -15 -14 -16 -14 -13 -12 -9 -14 -15 -15 -15 -13 -11 -8 -9 -10 -14 -13
-17 -16 -14 -13 -9 -4 -2 -2 -1 -1 -0 0 -2 -2 -2 -3 -6 -8 -12 -14 -13 -10 -1 -5 -11 -12 -14 -13 -11 -14 -14 -14 -12 -11 -14 -13 -15 -14 -14 -16 -15 -5 -14 -13 -13 -8 -1
-18 -17 -16 -14 -13 -11 -7 -3 -2 -1 -1 -0 0 -2 -2 -2 -5 -6 -10 -16 -13 -4 10 -6 -10 -11 -14 -11 -11 -12 -15 -14 -11 -13 -9 -10 -14 -14 -13 -15 -15 -11 -14 -15 -12 -7 -7
-17 -17 -16 -16 -15 -13 -12 -11 -8 -5 -3 -1 -0 -2 -1 -2 -4 -5 -8 -10 -6 7 9 -5 -11 -11 -10 -11 -12 -13 -14 -13 -13 -12 -14 -14 -13 -13 -13 -14 -14 -14 -14 -12 -12 -10 2
-19 -18 -17 -16 -15 -15 -14 -13 -11 -10 -8 -5 -1 -1 -1 -1 -4 -5 -6 -5 6 6 -6 -4 -7 -11 -12 -10 -10 -13 -12 -8 -4 6 1 -7 -12 -13 -13 -11 -13 -11 -3 9 9 9 5
-19 -19 -19 -19 -18 -18 -17 -16 -15 -14 -12 -10 -6 -0 -1 -1 -3 -5 -5 -1 6 -4 -6 -12 -12 -9 -7 -11 -10 -11 -10 -8 -12 -9 -2 -1 2 -10 -12 -9 -7 -10 -5 6 6 2 -1
-19 -19 -19 -18 -18 -19 -19 -18 -18 -18 -17 -16 -12 -2 -1 -1 -3 -4 -3 8 -0 -4 -11 -9 -8 -4 -4 -10 -8 -8 -8 -8 -10 -9 3 1 0 -12 -12 -13 -10 -7 -2 -13 -4 -11 -6
-16 -16 -15 -15 -15 -15 -15 -16 -17 -18 -17 -17 -13 -2 -1 -1 -2 -3 2 -2 -5 -12 -14 -13 -3 -8 -2 -6 -4 -5 -6 -7 -9 -10 -11 -8 2 -12 -11 -11 -13 -9 -11 -2 -2 3 5
-14 -13 -12 -11 -12 -13 -14 -14 -15 -16 -17 -17 -13 -3 -1 -1 -2 -2 6 -3 -8 -13 -14 -10 -9 -5 -5 -6 -9 -6 -3 -8 -11 -12 -13 -9 -5 -3 -11 -6 -4 -9 -6 -9 -6 -7 2
-7 -5 -3 -3 -2 -3 -6 -8 -11 -13 -15 -17 -15 -2 -1 -2 1 -4 -1 -8 -11 -12 -14 -12 -12 -8 -9 -11 -7 -7 -6 -9 -12 -11 -7 -10 -6 -1 -2 -10 -12 -9 -6 -5 -2 -1 -8
-0 0 1 1 1 2 2 1 -4 -9 -12 -15 -10 -3 -2 -1 6 1 -8 -9 -10 -11 -12 -12 -11 -13 -13 -9 -1 -9 -11 -11 -12 -13 -7 -8 -2 3 3 -6 -9 -8 -9 -10 -10 -8 -4
3 3 3 4 4 5 6 6 6 5 -0 -13 -10 5 -5 -3 -3 1 -1 -4 -7 -12 -12 -13 -12 -13 -12 -11 -13 -7 -10 -12 -12 -13 -11 -10 -6 0 4 4 -3 -3 -8 -12 -8 -3 -3
5 5 5 6 6 6 6 7 7 7 6 -7 -10 -3 -4 3 -2 -4 -3 -3 -4 -4 -11 -13 -12 -12 -5 -4 -9 -9 -11 -12 -12 -12 -8 -10 -5 -8 -7 -7 -5 -4 -4 -9 -9 -7 -3
6 6 6 6 6 7 7 7 7 7 6 3 -9 -6 -7 -5 -6 -5 -3 -1 -3 -5 -6 -8 -8 -8 -11 -4 -3 -0 -8 -10 -8 -10 -9 -10 -2 -9 -6 -7 -6 -5 -6 -5 -8 -7 -6
6 6 7 7 7 7 7 7 7 7 7 6 5 3 -1 -4 -5 -2 -2 -2 -1 -6 -6 -8 -9 -8 -10 -10 -10 -11 -12 -13 -12 -9 -8 -7 -6 -6 -1 -9 -7 1 -4 -6 -7 -8 -7
6 7 6 6 7 7 7 8 7 8 7 7 6 6 -0 3 -3 -3 -3 -3 -2 -5 -1 -7 -10 -9 -8 -11 -11 -12 -12 -13 -13 -11 -10 -9 -9 -8 -3 -5 3 6 -7 -6 -5 -6 -8
5 6 7 6 7 7 7 7 8 8 8 8 8 7 5 1 -2 -5 -4 -4 -4 -4 -6 -7 -8 -9 -11 -12 -8 -4 -7 -10 -12 -13 -12 -12 -12 -6 -3 -3 -3 -2 -7 -6 -6 -3 -3
7 7 7 7 6 7 7 7 7 7 7 7 7 7 2 -3 -2 1 -4 -4 -1 -2 -4 -9 -10 -12 -12 -10 -7 1 2 -1 -5 -10 -13 -13 -13 -9 -7 -1 2 1 -12 -14 -11 1 -6
6 6 6 6 6 6 6 6 6 6 7 7 7 7 5 1 3 2 -2 -1 -0 -3 -1 -8 -9 -10 -12 -8 -4 -1 -2 -7 -2 -5 -7 -8 -9 -7 -7 -4 -5 -8 -11 -15 -1 1 -5
-1 -1 0 0 1 -4 -6 -3 -1 2 4 6 6 6 5 4 4 4 4 2 -1 -4 0 -2 -2 -4 -6 -3 -4 -2 -3 -4 -5 -8 -7 -3 -2 -6 -7 -4 -0 -11 -12 -5 -3 -6 -6
-29 -29 -24 -19 -21 -19 -18 -18 -18 -18 -15 1 5 5 5 3 4 3 3 4 2 -2 -1 -0 0 -1 -2 -2 -2 -3 -2 -6 -4 1 -10 -2 -2 1 -5 -2 -5 -7 -9 -7 -6 -6 -6
Wind_Speed
14 14 13 13 13 14 15 16 15 15 16 14 11 8 6 4 5 7 7 7 8 4 8 14 26 10 10 14 11 15 16 15 12 13 18 8 15 5 5 5 4 6 4 4 3 3 1
14 13 14 13 13 13 14 15 16 17 15 15 11 9 7 3 2 3 4 6 10 4 6 11 10 28 11 12 15 14 13 13 11 14 18 23 11 13 11 6 4 3 4 4 2 2 5
13 13 13 13 13 13 13 14 16 16 17 15 15 11 8 6 5 5 3 6 10 9 6 8 6 5 28 16 22 14 13 13 12 14 14 17 20 6 5 6 5 5 3 2 3 7 3
12 12 12 12 13 13 14 14 14 16 16 17 14 13 9 6 6 8 6 3 3 10 13 7 6 6 9 18 24 15 9 12 11 9 9 10 11 16 7 7 3 2 1 5 2 9 1
11 11 11 12 13 13 14 14 14 14 15 16 16 12 13 9 5 3 8 14 10 1 3 14 9 5 5 13 25 26 10 11 7 6 10 9 6 9 5 1 2 7 4 5 5 3 6
10 10 10 11 11 12 13 14 14 14 14 15 15 14 10 13 8 2 7 6 12 10 2 4 13 4 10 11 17 27 11 11 8 4 4 6 7 4 9 10 5 6 6 4 8 5 6
9 9 9 10 10 11 12 14 14 14 14 14 15 14 11 11 10 6 2 3 1 4 24 15 11 6 9 11 9 25 14 6 8 11 5 7 10 8 6 6 3 4 5 11 8 4 12
9 9 8 9 9 10 11 12 13 14 14 13 14 14 12 7 11 9 3 2 4 10 12 12 9 11 12 12 8 27 15 6 10 7 5 3 5 1 2 1 3 3 6 8 9 1 9
7 7 7 7 8 9 10 11 13 14 15 15 13 15 14 8 11 9 9 10 13 7 4 6 10 9 9 9 10 20 22 7 9 7 11 6 3 2 4 2 6 4 4 5 8 14 2
6 6 6 6 7 8 9 11 12 14 15 15 13 15 16 10 6 8 7 7 5 2 2 8 7 8 11 4 5 19 18 7 6 4 3 5 2 2 4 3 2 4 1 5 14 10 4
5 5 5 5 6 8 9 11 12 13 15 15 14 14 16 13 7 7 4 4 4 3 2 6 4 7 9 8 7 13 14 7 4 2 2 2 1 2 4 2 0 4 5 8 3 3 3
4 3 4 5 6 7 9 10 11 13 14 15 15 12 16 13 11 7 3 4 3 0 2 4 4 8 3 8 6 11 6 8 4 0 3 2 1 2 5 4 6 8 4 3 3 2 2
3 3 3 4 5 6 7 9 11 13 14 15 15 10 16 16 10 8 2 3 0 4 1 6 4 6 3 6 4 11 7 8 6 5 7 2 2 2 4 5 2 3 4 4 3 2 4
3 2 2 3 4 5 7 9 10 12 13 14 14 10 14 17 13 8 2 1 6 1 2 1 2 4 3 7 3 6 2 3 6 4 2 6 4 4 5 3 3 4 2 2 6 7 13
3 2 1 2 4 5 7 8 9 11 12 13 13 8 12 16 13 8 2 5 1 0 1 5 2 2 2 2 3 4 4 2 3 5 3 6 4 3 6 2 2 2 1 1 1 1 4
3 2 0 2 3 4 6 7 9 11 12 13 11 4 12 15 11 7 3 3 1 1 1 1 2 2 3 7 6 7 3 2 3 0 1 2 7 2 4 2 6 2 3 1 1 5 7
4 2 1 2 3 5 6 8 10 12 13 13 8 2 11 14 8 6 4 2 1 1 1 3 2 1 0 3 2 2 1 3 3 4 2 3 2 1 2 6 5 3 2 1 1 2 4
3 2 2 4 6 8 9 10 11 12 13 12 5 1 10 10 4 5 2 1 2 2 1 1 2 2 2 1 3 2 3 2 8 8 2 2 1 7 3 3 2 2 1 4 3 3 1
2 1 1 3 6 8 11 13 14 13 14 12 3 3 8 7 3 2 2 2 2 3 2 2 2 1 2 2 3 3 3 2 8 6 3 7 2 7 3 2 1 5 4 1 2 1 9
3 2 1 2 4 5 7 10 13 16 17 10 4 2 6 8 8 4 2 1 2 2 2 2 2 2 2 3 5 3 2 3 9 5 4 6 3 8 12 14 1 7 8 7 5 5 5
6 5 5 4 4 5 6 9 11 14 16 10 7 4 4 3 4 3 1 1 2 2 2 4 2 6 4 2 3 5 4 4 6 6 5 2 6 8 20 22 17 24 18 11 14 16 11
10 9 9 8 8 8 8 8 11 13 14 8 4 3 3 2 2 2 0 4 4 2 5 4 5 5 9 6 7 8 3 5 4 7 6 3 4 2 12 5 11 15 13 18 20 19 22
12 12 13 12 12 13 12 13 13 12 11 5 5 4 4 1 1 1 1 2 4 3 6 4 8 4 7 12 13 12 8 3 3 7 9 5 3 4 8 5 11 8 8 13 8 10 8
15 16 15 16 17 19 19 18 18 16 14 11 10 5 3 3 4 6 5 7 7 9 3 2 8 5 4 5 10 5 4 5 7 3 6 6 3 3 7 9 4 4 4 4 12 11 20
19 19 20 20 20 22 23 21 20 21 19 19 18 14 8 3 10 7 14 10 7 7 5 7 11 11 7 5 2 4 3 3 3 2 4 4 4 5 4 5 12 13 3 2 1 7 13
18 19 20 21 24 23 20 18 18 21 22 23 23 22 11 4 8 17 5 8 4 3 0 4 5 6 3 0 1 4 3 1 3 2 2 4 5 5 2 4 8 7 3 5 4 11 8
20 21 23 23 22 20 19 18 16 15 16 20 24 24 23 9 11 15 8 5 7 5 3 4 5 5 7 2 3 6 4 2 4 5 5 3 5 10 10 7 11 14 4 4 9 15 34
18 18 18 19 20 19 19 20 19 18 18 16 21 23 25 13 20 22 23 19 11 9 5 7 4 4 2 3 4 4 4 3 3 4 6 8 6 6 5 6 10 8 6 6 18 37 34
15 16 18 20 21 21 21 20 19 18 17 17 17 19 21 24 11 10 20 27 26 21 12 18 5 8 14 3 3 1 4 3 6 5 4 5 8 5 11 9 11 19 23 35 45 36 45
Wind_Direction
87 86 84 80 72 64 59 54 50 47 46 53 57 61 69 106 72 53 48 33 19 329 359 31 37 53 66 60 26 15 15 21 26 28 39 54 57 81 87 86 77 75 123 107 143 67 348
90 87 84 80 73 66 61 56 52 49 48 48 51 53 57 71 37 359 360 2 355 30 60 46 55 47 66 67 15 14 16 20 32 41 44 56 70 88 91 63 43 93 115 113 127 360 315
91 88 85 80 74 67 62 56 51 48 46 45 44 46 51 61 41 27 48 62 55 74 41 25 42 54 49 53 26 6 10 17 36 43 49 56 56 79 98 110 113 118 130 148 56 343 309
93 90 84 79 72 65 59 54 51 48 44 42 39 38 41 54 53 50 84 101 49 59 40 47 47 63 75 30 21 22 14 13 24 31 48 55 53 58 61 121 99 34 170 338 118 357 269
95 91 84 77 71 64 57 53 48 43 39 38 35 31 32 31 20 30 95 65 37 207 49 44 42 80 48 13 12 18 23 23 27 46 52 53 57 66 44 319 96 39 318 320 296 73 321
101 94 86 77 69 62 56 49 44 40 38 35 32 28 28 28 27 75 168 36 37 47 129 29 35 68 24 355 8 11 13 27 29 54 44 45 52 63 33 21 26 320 310 280 275 347 327
102 95 86 77 68 60 53 46 43 39 35 32 28 27 24 26 25 31 256 257 95 62 69 72 51 65 4 2 20 10 22 22 29 51 38 28 58 41 33 47 78 291 272 273 274 340 330
105 93 83 74 66 58 52 47 42 39 33 27 25 23 21 25 28 30 44 156 142 132 82 59 48 37 22 11 6 13 27 46 35 43 339 110 69 64 176 180 315 271 274 288 299 165 323
108 97 84 71 64 57 50 44 38 32 28 24 24 22 17 21 31 35 60 109 126 118 82 35 31 22 16 11 31 6 19 34 39 48 29 71 99 189 226 226 331 253 256 317 289 319 294
113 96 79 66 57 49 43 38 35 29 24 23 22 22 20 22 25 26 66 112 135 101 109 7 9 13 354 10 46 12 15 35 47 63 51 80 147 241 237 259 345 300 25 312 313 334 312
113 94 79 63 51 42 37 33 29 25 22 20 18 19 20 25 25 30 68 110 132 113 107 358 357 347 8 52 335 5 17 42 53 44 289 59 320 282 257 21 303 333 323 309 293 255 301
124 95 70 54 44 36 30 27 22 20 17 16 16 17 18 18 23 29 77 121 115 176 317 14 334 350 355 28 20 343 12 45 70 171 49 88 92 353 339 294 243 314 286 218 212 243 245
145 109 68 42 32 26 20 17 15 13 11 10 11 14 14 15 13 20 85 129 98 69 36 345 346 5 0 349 14 16 24 22 21 353 9 315 133 82 3 312 169 302 283 308 313 296 305
160 118 72 29 13 10 9 5 4 4 1 0 1 1 10 10 9 11 96 212 68 37 356 33 318 299 16 354 46 15 31 53 60 338 345 359 315 16 1 56 327 8 353 14 305 314 307
168 162 80 21 4 3 0 355 355 357 357 356 354 359 6 6 4 4 71 51 84 165 353 336 272 318 22 72 338 340 54 62 27 359 35 341 270 137 40 78 349 36 245 18 142 206 289
172 173 93 28 9 2 356 353 353 353 354 353 352 9 6 360 2 14 64 104 113 41 42 280 18 9 332 349 344 13 16 139 141 53 268 156 288 106 144 132 65 304 99 236 131 302 298
184 167 80 28 354 349 350 353 356 354 354 353 355 16 0 359 11 45 71 77 141 162 79 7 25 345 76 315 316 313 312 163 185 150 83 147 230 191 172 196 165 150 196 110 337 287 271
159 129 60 27 19 10 359 355 354 356 356 356 359 15 360 5 40 45 75 54 138 153 103 82 96 127 212 199 260 263 261 233 169 160 161 131 239 274 314 56 357 326 243 205 232 200 243
175 163 37 22 18 20 26 26 22 13 9 5 23 20 14 32 82 72 136 140 164 153 179 172 168 241 190 245 295 236 239 91 163 167 177 175 200 294 213 134 182 234 171 137 98 350 216
221 245 294 337 351 5 17 21 21 22 18 21 20 27 27 55 75 100 155 152 165 198 175 170 131 149 178 232 219 282 246 146 191 189 174 171 243 236 261 286 159 242 181 204 212 214 225
244 256 265 274 291 315 342 360 5 13 20 21 27 59 34 3 34 56 68 175 178 206 198 189 195 230 188 243 249 238 216 170 183 192 160 219 253 246 265 269 269 269 260 194 207 224 234
254 259 263 266 272 284 304 333 340 351 3 27 55 25 24 45 19 322 201 214 208 191 170 192 218 181 194 219 223 292 234 209 260 165 181 179 274 317 291 286 238 257 250 232 228 250 257
262 270 274 276 282 291 289 291 302 314 329 351 17 25 13 257 93 314 258 204 228 177 216 225 202 180 220 244 264 279 266 291 185 172 185 185 276 324 268 122 293 272 222 191 190 216 210
265 272 267 272 276 280 279 281 284 293 294 287 288 274 204 226 211 203 216 221 228 225 248 230 208 193 250 288 300 288 97 92 176 144 186 171 203 245 283 310 275 283 149 217 207 239 215
260 265 268 274 281 282 286 280 272 274 276 274 271 252 215 226 224 239 229 229 250 242 233 239 233 233 263 308 292 292 184 147 82 64 197 215 219 268 284 304 292 281 132 191 196 285 253
260 268 276 283 284 287 286 284 279 268 263 261 264 256 223 203 226 243 202 205 194 193 293 243 259 235 222 95 191 249 261 334 186 194 39 219 253 238 21 270 287 313 145 168 165 296 127
261 265 266 268 268 272 280 283 286 284 276 261 262 260 240 222 231 223 203 201 190 165 132 196 200 198 189 180 221 229 234 133 220 194 177 201 229 230 233 258 273 270 254 171 308 316 326
263 265 269 274 275 281 283 284 283 280 277 271 267 264 250 242 250 244 242 228 201 194 166 168 144 200 119 208 225 224 210 186 229 157 191 190 214 194 187 220 276 171 137 281 305 307 311
276 277 275 272 274 280 283 284 285 286 284 271 266 267 266 242 259 252 248 249 251 246 237 179 228 183 199 188 212 166 219 173 221 251 192 251 212 258 207 239 288 285 275 297 302 300 305
Height
1576 1576 1576 1576 1576 1575 1574 1573 1571 1569 1567 1565 1564 1563 1563 1562 1562 1561 1561 1560 1558 1557 1556 1555 1552 1548 1548 1548 1555 1552 1548 1546 1544 1542 1537 1535 1534 1537 1542 1548 1551 1552 1561 1562 1564 1564 1563
1579 1579 1578 1578 1578 1577 1576 1575 1573 1571 1570 1568 1566 1565 1564 1563 1563 1562 1561 1560 1558 1556 1557 1556 1555 1553 1550 1553 1557 1553 1550 1548 1546 1544 1542 1538 1540 1541 1546 1553 1553 1560 1561 1563 1564 1564 1562
1581 1581 1581 1580 1580 1579 1578 1577 1575 1574 1572 1570 1568 1566 1565 1564 1563 1562 1561 1561 1559 1558 1558 1556 1556 1555 1553 1562 1557 1554 1552 1550 1548 1546 1545 1543 1542 1543 1549 1554 1558 1559 1557 1562 1562 1562 1561
1583 1583 1583 1582 1582 1581 1580 1579 1577 1576 1574 1572 1569 1567 1566 1565 1564 1562 1562 1562 1560 1560 1558 1557 1556 1555 1558 1560 1558 1556 1553 1551 1549 1548 1547 1546 1545 1546 1551 1556 1557 1556 1555 1545 1559 1560 1560
1585 1585 1585 1584 1583 1583 1582 1581 1579 1578 1576 1573 1571 1569 1567 1565 1564 1563 1563 1562 1560 1559 1560 1558 1558 1557 1562 1562 1559 1555 1553 1552 1550 1549 1548 1548 1548 1551 1556 1550 1545 1554 1551 1556 1550 1562 1561
1587 1587 1587 1586 1585 1585 1584 1582 1581 1579 1577 1575 1572 1570 1568 1566 1565 1564 1563 1562 1562 1559 1560 1560 1560 1562 1566 1567 1562 1558 1554 1553 1551 1549 1550 1550 1552 1555 1561 1549 1559 1562 1562 1561 1557 1554 1556
1589 1589 1589 1588 1588 1587 1585 1584 1582 1580 1578 1576 1574 1571 1569 1567 1565 1563 1562 1563 1566 1566 1563 1568 1572 1570 1570 1568 1564 1560 1555 1553 1551 1552 1555 1557 1559 1571 1578 1578 1579 1580 1579 1569 1556 1564 1561
1590 1591 1591 1590 1589 1588 1587 1586 1584 1582 1580 1578 1575 1572 1570 1568 1566 1563 1562 1562 1562 1567 1570 1571 1571 1571 1570 1568 1566 1562 1557 1558 1557 1559 1561 1558 1571 1582 1582 1582 1580 1578 1574 1560 1554 1564 1565
1592 1592 1592 1591 1591 1590 1588 1587 1585 1583 1581 1579 1576 1574 1571 1568 1566 1565 1563 1563 1564 1566 1568 1574 1573 1572 1573 1571 1570 1567 1563 1563 1565 1566 1567 1559 1578 1582 1581 1578 1575 1567 1570 1566 1573 1561 1561
1593 1593 1593 1593 1592 1591 1590 1588 1586 1585 1583 1580 1578 1575 1572 1569 1569 1566 1565 1566 1566 1566 1567 1579 1577 1576 1575 1571 1573 1571 1568 1569 1569 1572 1574 1574 1580 1579 1577 1574 1578 1569 1575 1577 1573 1569 1541
1594 1594 1594 1594 1593 1592 1591 1589 1587 1585 1583 1581 1578 1576 1573 1569 1569 1568 1568 1566 1567 1568 1575 1582 1580 1579 1576 1576 1578 1574 1572 1570 1573 1575 1577 1573 1577 1576 1573 1576 1581 1570 1579 1576 1576 1572 1573
1595 1595 1595 1595 1594 1593 1591 1590 1588 1586 1584 1581 1579 1577 1574 1572 1570 1569 1567 1567 1568 1570 1586 1581 1582 1582 1579 1578 1579 1576 1574 1574 1576 1576 1575 1578 1582 1583 1581 1580 1580 1579 1577 1575 1576 1569 1539
1596 1596 1596 1595 1595 1593 1592 1590 1588 1586 1584 1582 1579 1577 1575 1572 1571 1568 1567 1568 1569 1573 1585 1586 1586 1587 1587 1584 1581 1582 1583 1587 1584 1572 1570 1571 1579 1584 1585 1578 1579 1578 1567 1534 1527 1525 1511
1596 1596 1596 1596 1595 1594 1592 1590 1588 1586 1585 1582 1580 1578 1576 1573 1571 1568 1568 1570 1579 1588 1586 1594 1592 1588 1584 1590 1588 1587 1586 1584 1598 1594 1583 1580 1553 1583 1588 1589 1586 1582 1580 1550 1545 1522 1511
1596 1596 1596 1595 1595 1594 1592 1590 1588 1586 1584 1582 1579 1578 1577 1574 1571 1569 1570 1576 1581 1589 1595 1593 1588 1582 1580 1588 1590 1586 1593 1594 1603 1603 1590 1582 1562 1588 1589 1590 1593 1582 1567 1588 1583 1601 1575
1596 1596 1596 1596 1595 1594 1592 1590 1588 1586 1583 1581 1578 1577 1576 1574 1571 1570 1572 1588 1592 1596 1596 1595 1586 1592 1585 1587 1585 1587 1588 1602 1603 1604 1604 1602 1585 1583 1589 1591 1592 1589 1594 1572 1576 1544 1525
1595 1596 1596 1596 1595 1594 1592 1590 1588 1585 1583 1580 1578 1577 1577 1574 1572 1572 1583 1592 1596 1597 1597 1597 1593 1594 1599 1596 1596 1592 1592 1599 1600 1604 1604 1605 1602 1572 1587 1580 1574 1588 1584 1589 1587 1580 1541
1595 1596 1596 1595 1595 1593 1592 1590 1588 1585 1583 1580 1578 1578 1578 1575 1576 1584 1589 1595 1597 1597 1598 1598 1598 1599 1597 1599 1596 1591 1589 1592 1598 1600 1600 1606 1601 1581 1557 1588 1588 1584 1575 1573 1557 1563 1587
1595 1595 1596 1595 1595 1594 1592 1590 1588 1585 1583 1580 1579 1579 1579 1576 1581 1587 1594 1595 1595 1596 1596 1597 1597 1598 1600 1597 1594 1592 1591 1598 1598 1600 1601 1603 1592 1567 1549 1583 1587 1581 1584 1586 1585 1579 1566
1595 1595 1595 1596 1595 1594 1593 1591 1589 1587 1584 1582 1581 1581 1581 1580 1585 1588 1592 1591 1593 1595 1595 1596 1597 1599 1598 1596 1598 1592 1590 1596 1596 1597 1598 1599 1596 1576 1545 1537 1560 1566 1578 1587 1574 1560 1538
1594 1595 1595 1595 1594 1594 1593 1592 1591 1589 1587 1585 1584 1588 1589 1589 1588 1591 1591 1593 1591 1591 1596 1596 1597 1595 1595 1594 1592 1591 1590 1593 1596 1596 1598 1599 1590 1578 1560 1556 1558 1548 1551 1573 1572 1544 1539
1593 1593 1593 1593 1593 1593 1592 1591 1591 1590 1589 1588 1588 1590 1590 1591 1591 1592 1592 1590 1588 1589 1591 1592 1592 1588 1591 1590 1582 1580 1583 1585 1580 1597 1597 1600 1582 1589 1560 1548 1555 1546 1544 1547 1555 1547 1537
1590 1591 1591 1591 1592 1591 1591 1591 1590 1590 1591 1589 1589 1589 1590 1592 1591 1592 1588 1587 1587 1587 1585 1585 1585 1587 1587 1581 1580 1581 1582 1583 1584 1586 1590 1595 1590 1580 1542 1549 1546 1526 1523 1530 1531 1529 1517
1587 1587 1588 1588 1588 1588 1588 1587 1587 1587 1588 1588 1588 1587 1588 1588 1589 1586 1584 1584 1583 1583 1583 1582 1583 1583 1580 1579 1578 1577 1579 1581 1583 1585 1586 1589 1591 1584 1554 1537 1501 1491 1504 1507 1507 1505 1501
1583 1583 1584 1584 1583 1583 1582 1582 1582 1582 1583 1582 1582 1584 1582 1581 1579 1579 1577 1578 1578 1579 1581 1578 1578 1577 1577 1577 1575 1570 1572 1580 1585 1585 1585 1585 1582 1574 1561 1548 1513 1482 1499 1500 1500 1480 1477
1577 1578 1579 1579 1579 1578 1577 1577 1576 1576 1576 1576 1576 1576 1576 1574 1571 1570 1572 1572 1574 1575 1578 1577 1577 1576 1577 1577 1576 1566 1550 1551 1570 1584 1586 1585 1583 1578 1575 1555 1515 1478 1496 1499 1501 1470 1472
1573 1572 1573 1574 1573 1573 1573 1572 1572 1570 1570 1570 1569 1569 1569 1568 1563 1565 1565 1566 1566 1568 1571 1573 1572 1573 1575 1574 1572 1561 1550 1559 1550 1559 1580 1581 1578 1574 1568 1557 1518 1488 1494 1499 1482 1466 1458
1567 1567 1567 1568 1567 1568 1568 1567 1566 1566 1565 1564 1563 1562 1561 1558 1556 1556 1557 1558 1559 1561 1564 1567 1571 1569 1574 1573 1564 1553 1558 1555 1555 1551 1558 1550 1548 1559 1559 1557 1513 1488 1493 1489 1473 1460 1465
1562 1562 1562 1562 1563 1562 1562 1562 1561 1560 1560 1559 1558 1557 1556 1556 1553 1551 1551 1552 1554 1554 1556 1559 1557 1555 1553 1559 1559 1561 1557 1561 1546 1538 1547 1542 1523 1508 1516 1486 1475 1479 1474 1472 1470 1465 1453